When you browse on this site, cookies collect data to enhance your experience and personalize the content and advertising you see.
Visit our Privacy Policy to learn more. By continuing to use the site, you agree to this use of cookies and data.
  • In Österreich
  • Länderverzeichnis
  • Für 7 Tage
  • Wassertemperatur
  • Satellitenkarten
  • Wetterkarte
  • News
  • Widgets
  • user-avatar
    Anmelden

    Stündliche Wetter Zapadnyy

    Heute, 23 Mai, Donnerstag

    Zeit Temperatur Niederschläge Wind Luftdruck Luftfeuchtigkeit
    00:00 +14°C° 0 mm 1 m/S 744 mmHg 85%
    01:00 +14°C° 0 mm 1 m/S 744 mmHg 85%
    02:00 +14°C° 0 mm 1 m/S 743 mmHg 85%
    03:00 +14°C° 0 mm 1 m/S 743 mmHg 85%
    04:00 +14°C° 0 mm 1 m/S 743 mmHg 85%
    05:00 +14°C° 0 mm 1 m/S 743 mmHg 85%
    06:00 +16°C° 0 mm 1 m/S 744 mmHg 78%
    07:00 +19°C° 0 mm 1 m/S 744 mmHg 71%
    08:00 +21°C° 0 mm 1 m/S 744 mmHg 64%
    09:00 +23°C° 0.4 mm 1 m/S 744 mmHg 61%
    10:00 +24°C° 0.4 mm 1 m/S 744 mmHg 59%
    11:00 +25°C° 0.4 mm 1 m/S 743 mmHg 56%
    12:00 +25°C° 0.1 mm 1 m/S 743 mmHg 53%
    13:00 +26°C° 0.1 mm 1 m/S 743 mmHg 50%
    14:00 +26°C° 0.1 mm 1 m/S 743 mmHg 47%
    15:00 +26°C° 0 mm 1 m/S 743 mmHg 48%
    16:00 +26°C° 0 mm 1 m/S 743 mmHg 49%
    17:00 +26°C° 0 mm 1 m/S 743 mmHg 50%
    18:00 +24°C° 0 mm 1 m/S 743 mmHg 56%
    19:00 +22°C° 0 mm 1 m/S 743 mmHg 62%
    20:00 +20°C° 0 mm 1 m/S 743 mmHg 68%
    21:00 +19°C° 0.1 mm 1 m/S 743 mmHg 72%
    22:00 +18°C° 0.1 mm 1 m/S 743 mmHg 75%
    23:00 +18°C° 0.1 mm 1 m/S 744 mmHg 79%

    Morgen, 24 Mai, Freitag

    Zeit Temperatur Niederschläge Wind Luftdruck Luftfeuchtigkeit
    00:00 +16°C° 0 mm 1 m/S 744 mmHg 80%
    01:00 +16°C° 0 mm 1 m/S 744 mmHg 82%
    02:00 +16°C° 0 mm 1 m/S 744 mmHg 83%
    03:00 +15°C° 0 mm 1 m/S 744 mmHg 84%
    04:00 +15°C° 0 mm 1 m/S 744 mmHg 85%
    05:00 +14°C° 0 mm 0 m/S 744 mmHg 86%
    06:00 +18°C° 0 mm 1 m/S 744 mmHg 80%
    07:00 +20°C° 0 mm 1 m/S 744 mmHg 74%
    08:00 +22°C° 0 mm 1 m/S 744 mmHg 67%
    09:00 +23°C° 0.8 mm 1 m/S 744 mmHg 65%
    10:00 +24°C° 0.8 mm 1 m/S 744 mmHg 63%
    11:00 +25°C° 0.8 mm 1 m/S 744 mmHg 61%
    12:00 +26°C° 0 mm 1 m/S 744 mmHg 56%
    13:00 +26°C° 0 mm 1 m/S 744 mmHg 52%
    14:00 +27°C° 0 mm 2 m/S 744 mmHg 47%
    15:00 +26°C° 0.8 mm 2 m/S 743 mmHg 55%
    16:00 +25°C° 0.8 mm 2 m/S 743 mmHg 63%
    17:00 +24°C° 0.8 mm 2 m/S 743 mmHg 71%
    18:00 +21°C° 0.6 mm 2 m/S 743 mmHg 77%
    19:00 +20°C° 0.6 mm 2 m/S 743 mmHg 83%
    20:00 +18°C° 0.6 mm 2 m/S 743 mmHg 90%
    21:00 +18°C° 1 mm 2 m/S 743 mmHg 91%
    22:00 +17°C° 1 mm 2 m/S 743 mmHg 93%
    23:00 +16°C° 1 mm 2 m/S 743 mmHg 94%

    übermorgen, 25 Mai, Samstag

    Zeit Temperatur Niederschläge Wind Luftdruck Luftfeuchtigkeit
    00:00 +16°C° 0.1 mm 1 m/S 743 mmHg 95%
    01:00 +16°C° 0.1 mm 1 m/S 742 mmHg 95%
    02:00 +15°C° 0.1 mm 1 m/S 742 mmHg 96%
    03:00 +15°C° 0 mm 1 m/S 742 mmHg 96%
    04:00 +15°C° 0 mm 1 m/S 742 mmHg 96%
    05:00 +15°C° 0 mm 2 m/S 742 mmHg 97%
    06:00 +16°C° 0 mm 2 m/S 742 mmHg 93%
    07:00 +18°C° 0 mm 2 m/S 743 mmHg 89%
    08:00 +19°C° 0 mm 2 m/S 743 mmHg 85%
    09:00 +20°C° 0.4 mm 2 m/S 743 mmHg 79%
    10:00 +21°C° 0.4 mm 3 m/S 743 mmHg 73%
    11:00 +23°C° 0.4 mm 4 m/S 742 mmHg 67%
    12:00 +23°C° 0.3 mm 4 m/S 742 mmHg 64%
    13:00 +23°C° 0.3 mm 4 m/S 742 mmHg 61%
    14:00 +23°C° 0.3 mm 4 m/S 742 mmHg 58%
    15:00 +23°C° 0.1 mm 4 m/S 742 mmHg 59%
    16:00 +23°C° 0.1 mm 4 m/S 742 mmHg 60%
    17:00 +22°C° 0.1 mm 4 m/S 742 mmHg 61%
    18:00 +21°C° 0 mm 3 m/S 742 mmHg 66%
    19:00 +19°C° 0 mm 3 m/S 742 mmHg 71%
    20:00 +17°C° 0 mm 2 m/S 742 mmHg 76%
    21:00 +16°C° 0 mm 2 m/S 742 mmHg 79%
    22:00 +15°C° 0 mm 2 m/S 743 mmHg 82%
    23:00 +14°C° 0 mm 1 m/S 743 mmHg 85%

    26 Mai, Sonntag

    Zeit Temperatur Niederschläge Wind Luftdruck Luftfeuchtigkeit
    00:00 +14°C° 0 mm 2 m/S 743 mmHg 87%
    01:00 +13°C° 0 mm 2 m/S 743 mmHg 90%
    02:00 +13°C° 0 mm 2 m/S 743 mmHg 93%
    03:00 +13°C° 0 mm 2 m/S 743 mmHg 94%
    04:00 +12°C° 0 mm 2 m/S 744 mmHg 94%
    05:00 +12°C° 0 mm 2 m/S 744 mmHg 95%
    06:00 +13°C° 0 mm 2 m/S 744 mmHg 87%
    07:00 +15°C° 0 mm 2 m/S 744 mmHg 78%
    08:00 +16°C° 0 mm 2 m/S 744 mmHg 70%
    09:00 +18°C° 0 mm 3 m/S 744 mmHg 65%
    10:00 +19°C° 0 mm 3 m/S 744 mmHg 60%
    11:00 +20°C° 0 mm 3 m/S 744 mmHg 55%
    12:00 +21°C° 0 mm 4 m/S 744 mmHg 53%
    13:00 +21°C° 0 mm 4 m/S 744 mmHg 51%
    14:00 +22°C° 0 mm 5 m/S 743 mmHg 49%
    15:00 +22°C° 0 mm 5 m/S 743 mmHg 50%
    16:00 +21°C° 0 mm 5 m/S 743 mmHg 52%
    17:00 +21°C° 0 mm 4 m/S 743 mmHg 53%
    18:00 +19°C° 0.1 mm 4 m/S 743 mmHg 63%
    19:00 +18°C° 0.1 mm 3 m/S 743 mmHg 72%
    20:00 +16°C° 0.1 mm 3 m/S 743 mmHg 81%
    21:00 +14°C° 0 mm 3 m/S 743 mmHg 85%
    22:00 +15°C° 0 mm 2 m/S 743 mmHg 88%
    23:00 +14°C° 0 mm 2 m/S 743 mmHg 92%

    27 Mai, Montag

    Zeit Temperatur Niederschläge Wind Luftdruck Luftfeuchtigkeit
    00:00 +13°C° 0 mm 2 m/S 744 mmHg 93%
    01:00 +13°C° 0 mm 2 m/S 744 mmHg 94%
    02:00 +12°C° 0 mm 2 m/S 744 mmHg 94%
    03:00 +12°C° 0 mm 2 m/S 744 mmHg 93%
    04:00 +10°C° 0 mm 2 m/S 745 mmHg 93%
    05:00 +10°C° 0 mm 3 m/S 745 mmHg 92%
    06:00 +12°C° 0 mm 3 m/S 745 mmHg 83%
    07:00 +13°C° 0 mm 3 m/S 746 mmHg 74%
    08:00 +14°C° 0 mm 4 m/S 746 mmHg 65%
    09:00 +17°C° 0 mm 4 m/S 746 mmHg 62%
    10:00 +18°C° 0 mm 4 m/S 746 mmHg 59%
    11:00 +19°C° 0 mm 4 m/S 746 mmHg 55%
    12:00 +20°C° 0 mm 4 m/S 746 mmHg 54%
    13:00 +21°C° 0 mm 4 m/S 746 mmHg 54%
    14:00 +22°C° 0 mm 3 m/S 746 mmHg 53%
    15:00 +22°C° 0 mm 3 m/S 746 mmHg 53%
    16:00 +22°C° 0 mm 3 m/S 746 mmHg 54%
    17:00 +23°C° 0 mm 2 m/S 746 mmHg 55%
    18:00 +20°C° 0 mm 2 m/S 746 mmHg 61%
    19:00 +20°C° 0 mm 1 m/S 746 mmHg 67%
    20:00 +18°C° 0 mm 1 m/S 745 mmHg 74%
    21:00 +18°C° 0 mm 1 m/S 745 mmHg 76%
    22:00 +16°C° 0 mm 2 m/S 745 mmHg 77%
    23:00 +15°C° 0 mm 2 m/S 745 mmHg 79%

    28 Mai, Dienstag

    Zeit Temperatur Niederschläge Wind Luftdruck Luftfeuchtigkeit
    00:00 +16°C° 0 mm 2 m/S 745 mmHg 79%
    01:00 +16°C° 0 mm 3 m/S 745 mmHg 78%
    02:00 +17°C° 0 mm 3 m/S 744 mmHg 77%
    03:00 +17°C° 0.8 mm 3 m/S 744 mmHg 83%
    04:00 +15°C° 0.8 mm 4 m/S 743 mmHg 89%
    05:00 +15°C° 0.8 mm 4 m/S 743 mmHg 94%
    06:00 +17°C° 1.7 mm 4 m/S 743 mmHg 94%
    07:00 +18°C° 1.7 mm 4 m/S 742 mmHg 94%
    08:00 +17°C° 1.7 mm 5 m/S 742 mmHg 94%
    09:00 +20°C° 0 mm 5 m/S 742 mmHg 84%
    10:00 +22°C° 0 mm 5 m/S 742 mmHg 75%
    11:00 +25°C° 0 mm 5 m/S 741 mmHg 66%
    12:00 +26°C° 0.3 mm 5 m/S 741 mmHg 65%
    13:00 +26°C° 0.3 mm 6 m/S 741 mmHg 65%
    14:00 +26°C° 0.3 mm 6 m/S 741 mmHg 64%
    15:00 +25°C° 1.8 mm 5 m/S 741 mmHg 71%
    16:00 +23°C° 1.8 mm 4 m/S 741 mmHg 77%
    17:00 +22°C° 1.8 mm 4 m/S 741 mmHg 84%
    18:00 +22°C° 1.2 mm 3 m/S 741 mmHg 86%
    19:00 +21°C° 1.2 mm 3 m/S 741 mmHg 88%
    20:00 +20°C° 1.2 mm 3 m/S 741 mmHg 91%
    21:00 +19°C° 0.1 mm 3 m/S 741 mmHg 92%
    22:00 +19°C° 0.1 mm 3 m/S 741 mmHg 93%
    23:00 +19°C° 0.1 mm 2 m/S 741 mmHg 94%
    Mehr zeigen